Menominee, MI

2:54 PM CST on January 23, 2018 (GMT -0600)
Menominee-Marinette Twin County

Weather History for KMNM - January, 2014

Change the Weather History Date:

Tuesday, January 28, 2014

  Actual Average Record
Temperature  
Mean Temperature -6 °F -  
Max Temperature 3 °F 25 °F 44 °F (1989)
Min Temperature -16 °F 8 °F -22 °F (1966)
Degree Days  
Heating Degree Days 72    
Moisture  
Dew Point -    
Average Humidity    
Maximum Humidity    
Minimum Humidity    
Precipitation  
Precipitation 0.00 in - - ()
Sea Level Pressure  
Sea Level Pressure 30.09 in    
Wind  
Wind Speed 8 mph (West)    
Max Wind Speed 15 mph    
Max Gust Speed 24 mph    
Visibility 10 miles    
Events      
Averages and records for this station are not official NWS values.
T = Trace of Precipitation, MM = Missing Value Source: NWS Daily Summary

Daily Weather History Graph

Daily Weather History Graph

Search for Another Location

Airport or City:

Trip Planner

Search our weather history database for the weather conditions in past years. The results will help you decide how hot, cold, wet, or windy it might be!

Date:

Astronomy

Jan. 28, 2014 Rise Set
Actual Time 7:15 AM CST 4:52 PM CST
Civil Twilight 6:43 AM CST 5:24 PM CST
Nautical Twilight 6:07 AM CST 5:59 PM CST
Astronomical Twilight 5:33 AM CST 6:34 PM CST
Moon 4:58 AM CST (1/28) 2:40 PM CST (1/28)
Length of Visible Light 10h 40m
Length of Day
9h 37m
Waning Crescent, 7% of the Moon is Illuminated
Jan 28
Waning Crescent
Jan 30
New
Feb 6
First Quarter
Feb 14
Full
Feb 22
Last Quarter

Hourly Weather History & Observations

Time (CST) Temp. Windchill Dew Point Humidity Pressure Visibility Wind Dir Wind Speed Gust Speed Precip Events Conditions
12:15 AM -11.2 °F -24.8 °F - N/A% 30.21 in 10.0 mi West 5.8 mph - N/A   Clear
12:35 AM -11.2 °F -24.8 °F - N/A% 30.21 in 10.0 mi West 5.8 mph - N/A   Clear
12:55 AM -11.2 °F -24.8 °F - N/A% 30.20 in 10.0 mi West 5.8 mph - N/A   Clear
1:15 AM -13.0 °F -22.7 °F - N/A% 30.20 in 10.0 mi West 3.5 mph - N/A   Clear
1:35 AM -13.0 °F -27.0 °F - N/A% 30.21 in 10.0 mi West 5.8 mph - N/A   Clear
1:55 AM -13.0 °F -27.0 °F - N/A% 30.20 in 10.0 mi West 5.8 mph - N/A   Clear
2:15 AM -14.8 °F -29.1 °F - N/A% 30.19 in 10.0 mi West 5.8 mph - N/A   Clear
2:35 AM -14.8 °F -29.1 °F - N/A% 30.19 in 10.0 mi West 5.8 mph - N/A   Clear
2:55 AM -14.8 °F -29.1 °F - N/A% 30.19 in 10.0 mi West 5.8 mph - N/A   Clear
3:15 AM -14.8 °F -29.1 °F - N/A% 30.18 in 10.0 mi West 5.8 mph - N/A   Clear
3:35 AM -14.8 °F -27.2 °F - N/A% 30.19 in 10.0 mi West 4.6 mph - N/A   Clear
3:55 AM -14.8 °F -27.2 °F - N/A% 30.18 in 10.0 mi West 4.6 mph - N/A   Clear
4:15 AM -14.8 °F -29.1 °F - N/A% 30.17 in 10.0 mi WSW 5.8 mph - N/A   Clear
4:35 AM -14.8 °F -27.2 °F - N/A% 30.18 in 10.0 mi West 4.6 mph - N/A   Clear
4:55 AM -14.8 °F -29.1 °F - N/A% 30.18 in 10.0 mi WSW 5.8 mph - N/A   Clear
5:15 AM -14.8 °F -29.1 °F - N/A% 30.18 in 10.0 mi WSW 5.8 mph - N/A   Clear
5:35 AM -16.6 °F -29.3 °F - N/A% 30.17 in 10.0 mi WSW 4.6 mph - N/A   Clear
5:55 AM -16.6 °F -32.9 °F - N/A% 30.17 in 10.0 mi WSW 6.9 mph - N/A   Clear
6:15 AM -16.6 °F -32.9 °F - N/A% 30.17 in 10.0 mi West 6.9 mph - N/A   Clear
6:35 AM -16.6 °F -32.9 °F - N/A% 30.17 in 10.0 mi West 6.9 mph - N/A   Clear
6:55 AM -16.6 °F -32.9 °F - N/A% 30.17 in 10.0 mi West 6.9 mph - N/A   Clear
7:15 AM -16.6 °F -32.9 °F - N/A% 30.17 in 10.0 mi West 6.9 mph - N/A   Clear
7:35 AM -16.6 °F -34.4 °F - N/A% 30.17 in 10.0 mi WSW 8.1 mph - N/A   Clear
7:55 AM -16.6 °F -34.4 °F - N/A% 30.18 in 10.0 mi West 8.1 mph - N/A   Clear
8:15 AM -14.8 °F -34.6 °F - N/A% 30.18 in 10.0 mi West 10.4 mph - N/A   Clear
8:35 AM -14.8 °F -33.5 °F - N/A% 30.18 in 10.0 mi West 9.2 mph 16.1 mph N/A   Clear
8:55 AM -13.0 °F -28.6 °F - N/A% 30.17 in 10.0 mi West 6.9 mph 16.1 mph N/A   Clear
9:15 AM -11.2 °F -27.8 °F - N/A% 30.17 in 10.0 mi West 8.1 mph 16.1 mph N/A   Clear
9:35 AM -11.2 °F -27.8 °F - N/A% 30.17 in 10.0 mi West 8.1 mph 20.7 mph N/A   Clear
9:55 AM -9.4 °F -27.9 °F - N/A% 30.17 in 10.0 mi West 10.4 mph 17.3 mph N/A   Clear
10:15 AM -9.4 °F -26.8 °F - N/A% 30.17 in 10.0 mi West 9.2 mph 20.7 mph N/A   Clear
10:35 AM -7.6 °F -25.7 °F - N/A% 30.16 in 10.0 mi West 10.4 mph 19.6 mph N/A   Clear
10:55 AM -7.6 °F -22.1 °F - N/A% 30.15 in 10.0 mi West 6.9 mph 18.4 mph N/A   Clear
11:15 AM -5.8 °F -22.4 °F - N/A% 30.14 in 10.0 mi West 9.2 mph 19.6 mph N/A   Clear
11:35 AM -5.8 °F -26.8 °F - N/A% 30.13 in 10.0 mi West 15.0 mph 21.9 mph N/A   Clear
11:55 AM -4.0 °F -23.0 °F - N/A% 30.12 in 10.0 mi West 12.7 mph 24.2 mph N/A   Clear
12:15 PM -2.2 °F -19.9 °F - N/A% 30.10 in 10.0 mi West 11.5 mph 18.4 mph N/A   Clear
12:35 PM -0.4 °F -17.6 °F - N/A% 30.09 in 10.0 mi WSW 11.5 mph 24.2 mph N/A   Clear
12:55 PM -0.4 °F -17.6 °F - N/A% 30.08 in 10.0 mi WSW 11.5 mph 17.3 mph N/A   Clear
1:15 PM -0.4 °F -14.7 °F - N/A% 30.07 in 10.0 mi WSW 8.1 mph 19.6 mph N/A   Clear
1:35 PM -0.4 °F -18.4 °F - N/A% 30.05 in 10.0 mi WSW 12.7 mph 21.9 mph N/A   Clear
1:55 PM 1.4 °F -15.3 °F - N/A% 30.04 in 10.0 mi WSW 11.5 mph 19.6 mph N/A   Clear
2:15 PM 1.4 °F -17.6 °F - N/A% 30.03 in 10.0 mi WSW 15.0 mph 19.6 mph N/A   Clear
2:35 PM 1.4 °F -16.1 °F - N/A% 30.03 in 10.0 mi West 12.7 mph 20.7 mph N/A   Clear
2:55 PM 3.2 °F -11.3 °F - N/A% 30.02 in 10.0 mi West 9.2 mph 21.9 mph N/A   Clear
3:15 PM 3.2 °F -13.1 °F - N/A% 30.02 in 10.0 mi WSW 11.5 mph 16.1 mph N/A   Clear
3:35 PM 1.4 °F -16.1 °F - N/A% 30.02 in 10.0 mi WSW 12.7 mph 19.6 mph N/A   Clear
3:55 PM 1.4 °F -14.5 °F - N/A% 30.02 in 10.0 mi WSW 10.4 mph 17.3 mph N/A   Clear
4:15 PM 1.4 °F -15.3 °F - N/A% 30.01 in 10.0 mi West 11.5 mph 19.6 mph N/A   Clear
4:35 PM 1.4 °F -12.5 °F - N/A% 30.01 in 10.0 mi West 8.1 mph 19.6 mph N/A   Clear
4:55 PM 1.4 °F -12.5 °F - N/A% 30.01 in 10.0 mi WSW 8.1 mph 17.3 mph N/A   Clear
5:15 PM 1.4 °F -16.1 °F - N/A% 30.01 in 10.0 mi West 12.7 mph 20.7 mph N/A   Partly Cloudy
5:35 PM -0.4 °F -14.7 °F - N/A% 30.01 in 10.0 mi WSW 8.1 mph 16.1 mph N/A   Mostly Cloudy
5:55 PM -0.4 °F -15.7 °F - N/A% 30.00 in 10.0 mi WSW 9.2 mph 18.4 mph N/A   Overcast
6:15 PM -0.4 °F -15.7 °F - N/A% 30.00 in 10.0 mi West 9.2 mph 19.6 mph N/A   Overcast
6:35 PM -0.4 °F -16.7 °F - N/A% 29.99 in 10.0 mi WSW 10.4 mph 17.3 mph N/A   Mostly Cloudy
6:55 PM -0.4 °F -15.7 °F - N/A% 29.98 in 10.0 mi West 9.2 mph 20.7 mph N/A   Clear
7:15 PM -0.4 °F -16.7 °F - N/A% 29.98 in 10.0 mi West 10.4 mph 18.4 mph N/A   Clear
7:35 PM -0.4 °F -18.4 °F - N/A% 29.98 in 10.0 mi West 12.7 mph 24.2 mph N/A   Partly Cloudy
7:55 PM -0.4 °F -16.7 °F - N/A% 29.98 in 10.0 mi West 10.4 mph 18.4 mph N/A   Partly Cloudy
8:15 PM -0.4 °F -19.2 °F - N/A% 29.96 in 10.0 mi West 13.8 mph 24.2 mph N/A   Mostly Cloudy
8:35 PM -0.4 °F -17.6 °F - N/A% 29.95 in 10.0 mi West 11.5 mph 19.6 mph N/A   Mostly Cloudy
8:55 PM -0.4 °F -19.2 °F - N/A% 29.96 in 10.0 mi West 13.8 mph 20.7 mph N/A   Scattered Clouds
9:15 PM -0.4 °F -17.6 °F - N/A% 29.96 in 10.0 mi West 11.5 mph 23.0 mph N/A   Partly Cloudy
9:35 PM -0.4 °F -19.9 °F - N/A% 29.95 in 10.0 mi West 15.0 mph 21.9 mph N/A   Partly Cloudy
9:55 PM -0.4 °F -16.7 °F - N/A% 29.95 in 10.0 mi West 10.4 mph 20.7 mph N/A   Clear
10:15 PM -2.2 °F -21.5 °F - N/A% 29.94 in 10.0 mi West 13.8 mph 18.4 mph N/A   Clear
10:35 PM -2.2 °F -19.9 °F - N/A% 29.94 in 10.0 mi West 11.5 mph 19.6 mph N/A   Partly Cloudy
10:55 PM -2.2 °F -19.9 °F - N/A% 29.94 in 10.0 mi West 11.5 mph 17.3 mph N/A   Partly Cloudy
11:15 PM -2.2 °F -18.9 °F - N/A% 29.93 in 10.0 mi WSW 10.4 mph 20.7 mph N/A   Scattered Clouds
11:35 PM -2.2 °F -20.7 °F - N/A% 29.92 in 10.0 mi West 12.7 mph 18.4 mph N/A   Mostly Cloudy
11:55 PM -2.2 °F -21.5 °F - N/A% 29.92 in 10.0 mi WSW 13.8 mph 19.6 mph N/A   Mostly Cloudy